Simultaneous Nadir Overpasses (SNOs) Predictions

Prediction of SNOs between TERRA and METOP-C Satellite Orbit:

Table of predicted SNOs for the next 14.0 days since TLE Epoch: 7/6/2024
Index Date (TERRA) Time (TERRA) Lat,Lon (TERRA) SZA (TERRA ) Date (METOP-C) Time (METOP-C) Lat,Lon (METOP-C) SZA (METOP-C ) Distance(km) Time Diff (sec)
1 07/08/2024 04:08:16 -76.55, -59.63 125.95 07/08/2024 04:07:38 -76.54, -59.71 125.96 2.37 38
2 07/08/2024 04:57:21 77.26, 110.55 54.80 07/08/2024 04:58:01 77.25, 110.52 54.80 0.96 40
3 07/10/2024 18:38:54 -76.34, 82.03 125.83 07/10/2024 18:38:01 -76.33, 81.97 125.84 1.96 53
4 07/10/2024 19:27:59 77.06,-107.86 54.92 07/10/2024 19:28:24 77.05,-107.90 54.91 1.40 25
5 07/13/2024 09:09:30 -76.21,-136.08 125.60 07/13/2024 09:08:22 -76.21,-136.04 125.60 1.02 68
6 07/13/2024 09:58:36 76.88, 33.82 55.10 07/13/2024 09:58:46 76.89, 33.84 55.10 0.88 10
7 07/16/2024 00:29:14 76.62, 175.25 55.24 07/16/2024 00:29:10 76.62, 175.23 55.24 0.56 4
8 07/16/2024 01:17:25 -79.72, -2.23 121.24 07/16/2024 01:18:39 -79.51, -1.50 121.37 26.75 74
9 07/18/2024 14:59:49 76.47, -42.91 55.54 07/18/2024 14:59:31 76.47, -42.89 55.54 0.74 18



Historial Predications of SNOs between TERRA and METOP-C
